Overview Statistics Trail Chart Weather Telemetry Raw packets
 

This is the latest recevied weather packets stored in our database for station/object KJ7HSW. If no packets are shown the sender has not sent any weather packets the latest 10 day(s).

<< 21 22 23 24 25 26 27 >>
Time Temp. Humidity Pressure Rain* Wind** Luminosity Snow
1788455735 13.89° C 73% 1010 hPa 0 mm - 128 W/m² -
1788455430 13.89° C 73% 1009.9 hPa 0 mm - 133 W/m² -
1788455129 13.89° C 73% 1009.8 hPa 0 mm - 156 W/m² -
1788454825 13.89° C 73% 1009.7 hPa 0 mm - 159 W/m² -
1788454517 13.89° C 72% 1009.8 hPa 0 mm - 147 W/m² -
1788454213 13.89° C 74% 1009.7 hPa 0 mm - 142 W/m² -
1788453913 13.89° C 74% 1009.8 hPa 0 mm - 118 W/m² -
1788453608 13.33° C 74% 1009.9 hPa 0 mm - 111 W/m² -
1788453303 13.89° C 73% 1009.7 hPa 0 mm - 118 W/m² -
1788452999 13.89° C 74% 1009.6 hPa 0 mm - 134 W/m² -
1788452695 13.89° C 74% 1009.9 hPa 0 mm - 141 W/m² -
1788452391 13.89° C 73% 1009.7 hPa 0 mm - 111 W/m² -
1788452086 13.33° C 73% 1009.8 hPa 0 mm - 107 W/m² -
1788451802 13.33° C 73% 1009.6 hPa 0 mm - 120 W/m² -
1788451480 13.33° C 72% 1009.6 hPa 0 mm - 124 W/m² -
1788451179 13.33° C 72% 1009.8 hPa 0 mm - 138 W/m² -
1788450874 13.89° C 72% 1009.8 hPa 0 mm - 146 W/m² -
1788450570 13.89° C 72% 1009.6 hPa 0 mm - 396 W/m² -
1788450266 13.89° C 72% 1009.5 hPa 0 mm - 243 W/m² -
1788449961 14.44° C 71% 1009.4 hPa 0 mm - 328 W/m² -
1788449656 14.44° C 71% 1009.4 hPa 0 mm - 159 W/m² -
1788449353 13.89° C 73% 1009.4 hPa 0 mm - 255 W/m² -
1788449049 13.89° C 73% 1009.3 hPa 0 mm - 124 W/m² -
1788448749 13.33° C 73% 1009.5 hPa 0 mm - 203 W/m² -
1788448443 12.22° C 79% 1009.5 hPa 0 mm - 175 W/m² -

* Rain latest hour (hover to see other rain measurements)
** Current wind speed in m/s (hover to see current wind gust speed)